TimeCDT,TemperatureF,Dew PointF,Humidity,Sea Level PressureIn,VisibilityMPH,Wind Direction,Wind SpeedMPH,Gust SpeedMPH,PrecipitationIn,Events,Conditions,WindDirDegrees,DateUTC
12:53 AM,71.1,69.1,93,30.00,5.0,Calm,Calm,-,N/A,,Clear,0,2013-09-08 05:53:00
1:53 AM,71.1,68.0,90,29.98,5.0,Calm,Calm,-,N/A,,Clear,0,2013-09-08 06:53:00
2:53 AM,70.0,68.0,93,29.97,4.0,Calm,Calm,-,N/A,,Clear,0,2013-09-08 07:53:00
3:20 AM,68.0,66.2,94,29.99,2.5,Calm,Calm,-,N/A,,Clear,0,2013-09-08 08:20:00
3:27 AM,69.8,68.0,94,29.99,5.0,Calm,Calm,-,N/A,,Clear,0,2013-09-08 08:27:00
3:53 AM,69.1,66.9,93,29.97,5.0,Calm,Calm,-,N/A,,Clear,0,2013-09-08 08:53:00
4:53 AM,69.1,66.9,93,29.96,4.0,Calm,Calm,-,N/A,,Clear,0,2013-09-08 09:53:00
5:53 AM,68.0,66.0,93,29.98,4.0,Calm,Calm,-,N/A,,Clear,0,2013-09-08 10:53:00
6:53 AM,66.9,64.9,93,30.00,3.0,Calm,Calm,-,N/A,,Clear,0,2013-09-08 11:53:00
7:53 AM,72.0,69.1,91,30.01,4.0,Calm,Calm,-,N/A,,Clear,0,2013-09-08 12:53:00
8:53 AM,79.0,70.0,74,30.02,10.0,North,3.5,-,N/A,,Clear,350,2013-09-08 13:53:00
9:53 AM,82.9,69.1,63,30.01,10.0,Calm,Calm,-,N/A,,Clear,0,2013-09-08 14:53:00
10:53 AM,86.0,68.0,55,30.01,10.0,SSW,5.8,-,N/A,,Clear,210,2013-09-08 15:53:00
11:53 AM,87.1,66.0,49,30.01,10.0,Variable,5.8,-,N/A,,Clear,0,2013-09-08 16:53:00
12:53 PM,90.0,68.0,48,29.99,10.0,Variable,4.6,-,N/A,,Clear,0,2013-09-08 17:53:00
1:53 PM,89.1,66.0,46,29.97,10.0,Calm,Calm,-,N/A,,Partly Cloudy,0,2013-09-08 18:53:00
2:53 PM,90.0,66.0,45,29.96,10.0,Calm,Calm,-,N/A,,Mostly Cloudy,0,2013-09-08 19:53:00
3:53 PM,91.0,66.0,44,29.94,10.0,East,4.6,-,N/A,,Partly Cloudy,90,2013-09-08 20:53:00
4:53 PM,91.0,63.0,39,29.94,10.0,Variable,4.6,-,N/A,,Clear,0,2013-09-08 21:53:00
5:53 PM,90.0,64.0,42,29.94,10.0,Variable,4.6,-,N/A,,Clear,0,2013-09-08 22:53:00
6:53 PM,87.1,66.9,51,29.94,10.0,Calm,Calm,-,N/A,,Clear,0,2013-09-08 23:53:00
7:53 PM,80.1,70.0,71,29.96,10.0,Calm,Calm,-,N/A,,Clear,0,2013-09-09 00:53:00
8:53 PM,77.0,69.1,76,29.96,10.0,Calm,Calm,-,N/A,,Clear,0,2013-09-09 01:53:00
9:53 PM,77.0,70.0,79,29.98,9.0,Calm,Calm,-,N/A,,Clear,0,2013-09-09 02:53:00
10:53 PM,75.9,69.1,79,29.99,10.0,Calm,Calm,-,N/A,,Clear,0,2013-09-09 03:53:00
11:53 PM,73.0,69.1,87,29.98,8.0,Calm,Calm,-,N/A,,Clear,0,2013-09-09 04:53:00